Tracking 18843 objects as of 21-November-2017
HD Live streaming from Space Station
objects crossing your sky now

OPS 9322 (IDSCS 9)

Track OPS 9322 (IDSCS 9) now!
OPS 9322 (IDSCS 9) is classified as:


NORAD ID: 2649
Int'l Code: 1967-003B
Perigee: 33,556.0 km
Apogee: 33,819.9 km
Inclination: 2.8 °
Period: 1,329.9 minutes
Semi major axis: 40058 km
RCS: 0.1995 m2 (medium)
Launch date: January 18, 1967
Source: United States (US)
Launch site: AIR FORCE EASTERN TEST RANGE (AFETR)
aabbcc
Your satellite tracking list
Your tracking list is empty




NASA's NSSDC Master Catalog

Two Line Element Set (TLE):
1  2649U 67003B   17322.84698980 -.00000064 +00000-0 +00000-0 0  9995
2  2649 002.7925 056.2516 0032944 044.5282 271.6469 01.08281418105510
Source of the keplerian elements: AFSPC